• In Russia
  • List of Countries
  • For 7 days
  • Water Temperature
  • Satellite Maps
  • Weather Map
  • Weather Widgets
  • user-avatar
    Login

    Hourly Weather Salt Lake City

    Today, 23 January, Tuesday

    Time Temperature Precipitation Wind Pressure Humidity
    00:00 -3°C° 0 mm 1 mps 650 mmHg 81%
    01:00 -3°C° 0 mm 1 mps 650 mmHg 81%
    02:00 -5°C° 0 mm 2 mps 650 mmHg 82%
    03:00 -5°C° 0 mm 2 mps 650 mmHg 82%
    04:00 -6°C° 0 mm 2 mps 650 mmHg 82%
    05:00 -6°C° 0 mm 2 mps 650 mmHg 82%
    06:00 -6°C° 0 mm 2 mps 650 mmHg 82%
    07:00 -6°C° 0 mm 2 mps 651 mmHg 81%
    08:00 -6°C° 0 mm 2 mps 651 mmHg 81%
    09:00 -4°C° 0 mm 2 mps 651 mmHg 79%
    10:00 -2°C° 0 mm 2 mps 651 mmHg 77%
    11:00 +1°C° 0 mm 2 mps 652 mmHg 76%
    12:00 +2°C° 0 mm 2 mps 651 mmHg 76%
    13:00 +2°C° 0 mm 2 mps 651 mmHg 77%
    14:00 +3°C° 0 mm 2 mps 651 mmHg 77%
    15:00 +2°C° 0 mm 2 mps 650 mmHg 78%
    16:00 +1°C° 0 mm 2 mps 650 mmHg 79%
    17:00 +1°C° 0 mm 1 mps 650 mmHg 79%
    18:00 -1°C° 0 mm 2 mps 650 mmHg 77%
    19:00 -2°C° 0 mm 2 mps 650 mmHg 75%
    20:00 -3°C° 0 mm 2 mps 650 mmHg 73%
    21:00 -3°C° 0 mm 2 mps 650 mmHg 70%
    22:00 -4°C° 0 mm 3 mps 650 mmHg 68%
    23:00 -4°C° 0 mm 3 mps 650 mmHg 65%

    Tomorrow, 24 January, Wednesday

    Time Temperature Precipitation Wind Pressure Humidity
    00:00 -4°C° 0 mm 3 mps 650 mmHg 63%
    01:00 -4°C° 0 mm 3 mps 650 mmHg 61%
    02:00 -4°C° 0 mm 3 mps 649 mmHg 59%
    03:00 -4°C° 0 mm 3 mps 649 mmHg 58%
    04:00 -4°C° 0 mm 3 mps 649 mmHg 56%
    05:00 -4°C° 0 mm 3 mps 649 mmHg 54%
    06:00 -4°C° 0 mm 3 mps 648 mmHg 53%
    07:00 -4°C° 0 mm 3 mps 648 mmHg 52%
    08:00 -4°C° 0 mm 3 mps 648 mmHg 51%
    09:00 -1°C° 0 mm 3 mps 648 mmHg 55%
    10:00 +2°C° 0 mm 3 mps 649 mmHg 59%
    11:00 +4°C° 0 mm 3 mps 649 mmHg 63%
    12:00 +4°C° 0 mm 3 mps 648 mmHg 66%
    13:00 +5°C° 0 mm 3 mps 647 mmHg 68%
    14:00 +5°C° 0 mm 3 mps 646 mmHg 71%
    15:00 +5°C° 0 mm 3 mps 646 mmHg 67%
    16:00 +4°C° 0 mm 3 mps 646 mmHg 64%
    17:00 +3°C° 0 mm 3 mps 645 mmHg 60%
    18:00 +1°C° 0 mm 4 mps 645 mmHg 59%
    19:00 0°C° 0 mm 4 mps 645 mmHg 58%
    20:00 -1°C° 0 mm 4 mps 644 mmHg 57%
    21:00 -1°C° 0 mm 4 mps 644 mmHg 57%
    22:00 -1°C° 0 mm 4 mps 644 mmHg 57%
    23:00 -1°C° 0 mm 5 mps 643 mmHg 57%

    Day after tomorrow, 25 January, Thursday

    Time Temperature Precipitation Wind Pressure Humidity
    00:00 -1°C° 0 mm 4 mps 643 mmHg 56%
    01:00 -1°C° 0 mm 4 mps 642 mmHg 55%
    02:00 -1°C° 0 mm 4 mps 642 mmHg 54%
    03:00 -1°C° 0 mm 4 mps 642 mmHg 54%
    04:00 -1°C° 0 mm 4 mps 641 mmHg 54%
    05:00 0°C° 0 mm 4 mps 641 mmHg 54%
    06:00 0°C° 0 mm 4 mps 640 mmHg 55%
    07:00 0°C° 0 mm 4 mps 640 mmHg 56%
    08:00 -1°C° 0 mm 4 mps 640 mmHg 56%
    09:00 0°C° 0.1 mm 4 mps 640 mmHg 59%
    10:00 +1°C° 0.1 mm 4 mps 641 mmHg 62%
    11:00 +3°C° 0.1 mm 4 mps 641 mmHg 64%
    12:00 +1°C° 0.5 mm 4 mps 641 mmHg 71%
    13:00 +1°C° 0.5 mm 4 mps 641 mmHg 77%
    14:00 0°C° 0.5 mm 4 mps 641 mmHg 84%
    15:00 +1°C° 0.5 mm 3 mps 641 mmHg 84%
    16:00 0°C° 0.5 mm 3 mps 642 mmHg 85%
    17:00 0°C° 0.5 mm 3 mps 642 mmHg 85%
    18:00 -2°C° 0.1 mm 2 mps 642 mmHg 82%
    19:00 -3°C° 0.1 mm 2 mps 643 mmHg 79%
    20:00 -2°C° 0.1 mm 1 mps 643 mmHg 76%
    21:00 -4°C° 0 mm 2 mps 644 mmHg 76%
    22:00 -5°C° 0 mm 2 mps 644 mmHg 75%
    23:00 -5°C° 0 mm 2 mps 644 mmHg 74%

    26 January, Friday

    Time Temperature Precipitation Wind Pressure Humidity
    00:00 -5°C° 0 mm 2 mps 645 mmHg 75%
    01:00 -5°C° 0 mm 2 mps 645 mmHg 76%
    02:00 -7°C° 0 mm 3 mps 645 mmHg 76%
    03:00 -6°C° 0 mm 3 mps 645 mmHg 77%
    04:00 -6°C° 0 mm 3 mps 645 mmHg 78%
    05:00 -6°C° 0 mm 3 mps 645 mmHg 79%
    06:00 -6°C° 0 mm 3 mps 646 mmHg 79%
    07:00 -6°C° 0 mm 3 mps 646 mmHg 79%
    08:00 -6°C° 0 mm 3 mps 646 mmHg 79%
    09:00 -5°C° 0 mm 3 mps 647 mmHg 76%
    10:00 -2°C° 0 mm 3 mps 647 mmHg 73%
    11:00 -1°C° 0 mm 3 mps 648 mmHg 70%
    12:00 0°C° 0 mm 3 mps 647 mmHg 68%
    13:00 0°C° 0 mm 3 mps 647 mmHg 66%
    14:00 +1°C° 0 mm 3 mps 647 mmHg 63%
    15:00 0°C° 0 mm 3 mps 647 mmHg 65%
    16:00 +1°C° 0 mm 2 mps 647 mmHg 67%
    17:00 +1°C° 0 mm 1 mps 647 mmHg 69%
    18:00 0°C° 0 mm 1 mps 647 mmHg 68%
    19:00 -3°C° 0 mm 2 mps 648 mmHg 68%
    20:00 -4°C° 0 mm 2 mps 648 mmHg 67%
    21:00 -4°C° 0 mm 2 mps 648 mmHg 67%
    22:00 -4°C° 0 mm 2 mps 648 mmHg 67%
    23:00 -5°C° 0 mm 2 mps 648 mmHg 67%

    27 January, Saturday

    Time Temperature Precipitation Wind Pressure Humidity
    00:00 -6°C° 0 mm 3 mps 648 mmHg 66%
    01:00 -6°C° 0 mm 3 mps 648 mmHg 66%
    02:00 -6°C° 0 mm 3 mps 648 mmHg 66%
    03:00 -5°C° 0 mm 3 mps 648 mmHg 65%
    04:00 -5°C° 0 mm 3 mps 648 mmHg 64%
    05:00 -5°C° 0 mm 3 mps 648 mmHg 63%
    06:00 -5°C° 0 mm 3 mps 649 mmHg 62%
    07:00 -5°C° 0 mm 3 mps 649 mmHg 62%
    08:00 -4°C° 0 mm 3 mps 649 mmHg 61%
    09:00 -1°C° 0 mm 3 mps 650 mmHg 60%
    10:00 0°C° 0 mm 3 mps 650 mmHg 60%
    11:00 +2°C° 0 mm 3 mps 650 mmHg 59%
    12:00 +3°C° 0 mm 3 mps 650 mmHg 61%
    13:00 +3°C° 0 mm 3 mps 649 mmHg 63%
    14:00 +4°C° 0 mm 3 mps 649 mmHg 65%
    15:00 +3°C° 0.1 mm 3 mps 649 mmHg 66%
    16:00 +3°C° 0.1 mm 3 mps 649 mmHg 68%
    17:00 +2°C° 0.1 mm 3 mps 649 mmHg 70%
    18:00 +2°C° 0.1 mm 3 mps 650 mmHg 71%
    19:00 +2°C° 0.1 mm 3 mps 650 mmHg 71%
    20:00 +2°C° 0.1 mm 3 mps 650 mmHg 72%
    21:00 +2°C° 0.1 mm 3 mps 650 mmHg 73%
    22:00 +2°C° 0.1 mm 3 mps 651 mmHg 73%
    23:00 +2°C° 0.1 mm 3 mps 651 mmHg 74%

    28 January, Sunday

    Time Temperature Precipitation Wind Pressure Humidity
    00:00 +2°C° 0 mm 3 mps 651 mmHg 75%
    01:00 +2°C° 0 mm 3 mps 651 mmHg 75%
    02:00 +2°C° 0 mm 3 mps 651 mmHg 75%
    03:00 +2°C° 0 mm 3 mps 651 mmHg 75%
    04:00 +2°C° 0 mm 3 mps 651 mmHg 75%
    05:00 +3°C° 0 mm 2 mps 651 mmHg 75%
    06:00 +2°C° 0 mm 2 mps 651 mmHg 74%
    07:00 +2°C° 0 mm 2 mps 651 mmHg 74%
    08:00 +2°C° 0 mm 2 mps 652 mmHg 74%
    09:00 +3°C° 0 mm 2 mps 652 mmHg 78%
    10:00 +5°C° 0 mm 2 mps 652 mmHg 82%
    11:00 +6°C° 0 mm 2 mps 653 mmHg 86%
    12:00 +7°C° 0 mm 2 mps 653 mmHg 86%
    13:00 +7°C° 0 mm 2 mps 652 mmHg 86%
    14:00 +8°C° 0 mm 2 mps 652 mmHg 86%
    15:00 +7°C° 0 mm 2 mps 652 mmHg 84%
    16:00 +6°C° 0 mm 2 mps 652 mmHg 82%
    17:00 +6°C° 0 mm 2 mps 652 mmHg 80%
    18:00 +5°C° 0 mm 2 mps 652 mmHg 78%
    19:00 +4°C° 0 mm 2 mps 652 mmHg 75%
    20:00 +4°C° 0 mm 2 mps 652 mmHg 72%
    21:00 +4°C° 0 mm 2 mps 652 mmHg 71%
    22:00 +3°C° 0 mm 2 mps 652 mmHg 69%
    23:00 +3°C° 0 mm 2 mps 652 mmHg 68%
    Show more